When you browse on this site, cookies collect data to enhance your experience and personalize the content and advertising you see.
Visit our Privacy Policy to learn more. By continuing to use the site, you agree to this use of cookies and data.
  • In Österreich
  • Länderverzeichnis
  • Für 7 Tage
  • Wassertemperatur
  • Wetterkarte
  • News
  • Widgets
  • user-avatar
    Anmelden

    Stündliche Wetter Chapulhuacán

    Heute, 15 Dezember, Sonntag

    Zeit Temperatur Niederschläge Wind Luftdruck Luftfeuchtigkeit
    00:00 +16°C° 0 mm 1 m/S 674 mmHg 69%
    01:00 +16°C° 0 mm 1 m/S 674 mmHg 66%
    02:00 +16°C° 0 mm 1 m/S 674 mmHg 63%
    03:00 +16°C° 0 mm 1 m/S 674 mmHg 61%
    04:00 +16°C° 0 mm 1 m/S 674 mmHg 59%
    05:00 +16°C° 0 mm 1 m/S 674 mmHg 58%
    06:00 +18°C° 0 mm 1 m/S 675 mmHg 55%
    07:00 +20°C° 0 mm 1 m/S 676 mmHg 52%
    08:00 +22°C° 0 mm 1 m/S 677 mmHg 50%
    09:00 +24°C° 0 mm 1 m/S 677 mmHg 45%
    10:00 +26°C° 0 mm 1 m/S 677 mmHg 41%
    11:00 +29°C° 0 mm 1 m/S 677 mmHg 36%
    12:00 +28°C° 0 mm 1 m/S 676 mmHg 39%
    13:00 +28°C° 0 mm 1 m/S 675 mmHg 42%
    14:00 +28°C° 0 mm 2 m/S 675 mmHg 45%
    15:00 +25°C° 0 mm 1 m/S 674 mmHg 57%
    16:00 +22°C° 0 mm 1 m/S 673 mmHg 69%
    17:00 +18°C° 0 mm 0 m/S 673 mmHg 81%
    18:00 +20°C° 0 mm 1 m/S 673 mmHg 77%
    19:00 +20°C° 0 mm 1 m/S 674 mmHg 72%
    20:00 +20°C° 0 mm 1 m/S 675 mmHg 67%
    21:00 +19°C° 0 mm 1 m/S 675 mmHg 64%
    22:00 +19°C° 0 mm 1 m/S 675 mmHg 61%
    23:00 +19°C° 0 mm 1 m/S 674 mmHg 57%

    Morgen, 16 Dezember, Montag

    Zeit Temperatur Niederschläge Wind Luftdruck Luftfeuchtigkeit
    00:00 +19°C° 0 mm 1 m/S 674 mmHg 55%
    01:00 +19°C° 0 mm 1 m/S 674 mmHg 53%
    02:00 +19°C° 0 mm 1 m/S 674 mmHg 51%
    03:00 +17°C° 0 mm 2 m/S 674 mmHg 50%
    04:00 +17°C° 0 mm 2 m/S 674 mmHg 49%
    05:00 +17°C° 0 mm 2 m/S 674 mmHg 49%
    06:00 +19°C° 0 mm 2 m/S 675 mmHg 49%
    07:00 +21°C° 0 mm 1 m/S 676 mmHg 49%
    08:00 +23°C° 0 mm 1 m/S 677 mmHg 49%
    09:00 +25°C° 0 mm 1 m/S 677 mmHg 44%
    10:00 +27°C° 0 mm 1 m/S 677 mmHg 39%
    11:00 +30°C° 0 mm 1 m/S 677 mmHg 34%
    12:00 +29°C° 0 mm 1 m/S 676 mmHg 36%
    13:00 +29°C° 0 mm 1 m/S 675 mmHg 37%
    14:00 +29°C° 0 mm 2 m/S 675 mmHg 39%
    15:00 +26°C° 0 mm 1 m/S 674 mmHg 49%
    16:00 +24°C° 0 mm 1 m/S 674 mmHg 59%
    17:00 +19°C° 0 mm 0 m/S 674 mmHg 69%
    18:00 +20°C° 0 mm 1 m/S 675 mmHg 69%
    19:00 +20°C° 0 mm 1 m/S 675 mmHg 69%
    20:00 +19°C° 0 mm 1 m/S 676 mmHg 69%
    21:00 +19°C° 0 mm 1 m/S 676 mmHg 67%
    22:00 +19°C° 0 mm 1 m/S 676 mmHg 64%
    23:00 +18°C° 0 mm 1 m/S 677 mmHg 62%

    übermorgen, 17 Dezember, Dienstag

    Zeit Temperatur Niederschläge Wind Luftdruck Luftfeuchtigkeit
    00:00 +18°C° 0 mm 1 m/S 677 mmHg 66%
    01:00 +16°C° 0 mm 1 m/S 676 mmHg 71%
    02:00 +15°C° 0 mm 1 m/S 676 mmHg 75%
    03:00 +16°C° 0 mm 1 m/S 677 mmHg 76%
    04:00 +16°C° 0 mm 1 m/S 677 mmHg 77%
    05:00 +16°C° 0 mm 1 m/S 678 mmHg 77%
    06:00 +15°C° 0 mm 1 m/S 679 mmHg 77%
    07:00 +15°C° 0 mm 1 m/S 679 mmHg 76%
    08:00 +15°C° 0 mm 1 m/S 680 mmHg 76%
    09:00 +15°C° 0 mm 1 m/S 680 mmHg 71%
    10:00 +15°C° 0 mm 2 m/S 680 mmHg 66%
    11:00 +15°C° 0 mm 2 m/S 680 mmHg 62%
    12:00 +15°C° 0 mm 2 m/S 679 mmHg 57%
    13:00 +14°C° 0 mm 2 m/S 679 mmHg 53%
    14:00 +14°C° 0 mm 2 m/S 678 mmHg 49%
    15:00 +13°C° 0 mm 1 m/S 679 mmHg 49%
    16:00 +12°C° 0 mm 1 m/S 679 mmHg 50%
    17:00 +11°C° 0 mm 1 m/S 679 mmHg 50%
    18:00 +11°C° 0 mm 1 m/S 680 mmHg 51%
    19:00 +11°C° 0 mm 1 m/S 681 mmHg 53%
    20:00 +10°C° 0 mm 1 m/S 681 mmHg 54%
    21:00 +10°C° 0 mm 1 m/S 681 mmHg 56%
    22:00 +10°C° 0 mm 1 m/S 682 mmHg 58%
    23:00 +9°C° 0 mm 1 m/S 682 mmHg 60%

    18 Dezember, Mittwoch

    Zeit Temperatur Niederschläge Wind Luftdruck Luftfeuchtigkeit
    00:00 +8°C° 0 mm 1 m/S 682 mmHg 61%
    01:00 +8°C° 0 mm 1 m/S 681 mmHg 63%
    02:00 +7°C° 0 mm 1 m/S 681 mmHg 64%
    03:00 +7°C° 0 mm 1 m/S 681 mmHg 63%
    04:00 +5°C° 0 mm 0 m/S 682 mmHg 63%
    05:00 +5°C° 0 mm 0 m/S 682 mmHg 62%
    06:00 +7°C° 0 mm 1 m/S 682 mmHg 57%
    07:00 +8°C° 0 mm 1 m/S 683 mmHg 52%
    08:00 +8°C° 0 mm 1 m/S 684 mmHg 47%
    09:00 +10°C° 0 mm 1 m/S 683 mmHg 45%
    10:00 +10°C° 0 mm 2 m/S 683 mmHg 43%
    11:00 +12°C° 0 mm 2 m/S 683 mmHg 41%
    12:00 +12°C° 0 mm 2 m/S 682 mmHg 42%
    13:00 +12°C° 0 mm 2 m/S 681 mmHg 43%
    14:00 +12°C° 0 mm 2 m/S 680 mmHg 44%
    15:00 +11°C° 0 mm 1 m/S 680 mmHg 51%
    16:00 +9°C° 0 mm 1 m/S 680 mmHg 58%
    17:00 +6°C° 0 mm 0 m/S 680 mmHg 65%
    18:00 +7°C° 0 mm 1 m/S 680 mmHg 67%
    19:00 +6°C° 0 mm 1 m/S 680 mmHg 69%
    20:00 +6°C° 0 mm 1 m/S 681 mmHg 71%
    21:00 +6°C° 0 mm 1 m/S 681 mmHg 71%
    22:00 +6°C° 0 mm 1 m/S 680 mmHg 70%
    23:00 +6°C° 0 mm 1 m/S 680 mmHg 70%

    19 Dezember, Donnerstag

    Zeit Temperatur Niederschläge Wind Luftdruck Luftfeuchtigkeit
    00:00 +6°C° 0 mm 1 m/S 680 mmHg 70%
    01:00 +6°C° 0 mm 1 m/S 679 mmHg 71%
    02:00 +5°C° 0 mm 0 m/S 679 mmHg 72%
    03:00 +5°C° 0 mm 0 m/S 679 mmHg 72%
    04:00 +6°C° 0 mm 0 m/S 679 mmHg 73%
    05:00 +6°C° 0 mm 0 m/S 679 mmHg 73%
    06:00 +7°C° 0 mm 0 m/S 680 mmHg 69%
    07:00 +9°C° 0 mm 0 m/S 680 mmHg 65%
    08:00 +10°C° 0 mm 0 m/S 681 mmHg 61%
    09:00 +12°C° 0 mm 0 m/S 680 mmHg 57%
    10:00 +15°C° 0 mm 1 m/S 680 mmHg 54%
    11:00 +16°C° 0 mm 2 m/S 680 mmHg 51%
    12:00 +16°C° 0 mm 2 m/S 679 mmHg 52%
    13:00 +16°C° 0 mm 2 m/S 678 mmHg 54%
    14:00 +16°C° 0 mm 2 m/S 677 mmHg 56%
    15:00 +14°C° 0 mm 1 m/S 677 mmHg 66%
    16:00 +12°C° 0 mm 1 m/S 676 mmHg 77%
    17:00 +9°C° 0 mm 0 m/S 676 mmHg 87%
    18:00 +9°C° 0 mm 0 m/S 676 mmHg 89%
    19:00 +9°C° 0 mm 0 m/S 677 mmHg 90%
    20:00 +9°C° 0 mm 1 m/S 677 mmHg 91%
    21:00 +8°C° 0 mm 0 m/S 677 mmHg 91%
    22:00 +8°C° 0 mm 0 m/S 677 mmHg 90%
    23:00 +8°C° 0 mm 0 m/S 677 mmHg 90%

    20 Dezember, Freitag

    Zeit Temperatur Niederschläge Wind Luftdruck Luftfeuchtigkeit
    00:00 +8°C° 0 mm 0 m/S 677 mmHg 89%
    01:00 +8°C° 0 mm 0 m/S 676 mmHg 89%
    02:00 +8°C° 0 mm 0 m/S 676 mmHg 89%
    03:00 +8°C° 0 mm 0 m/S 676 mmHg 88%
    04:00 +9°C° 0 mm 1 m/S 677 mmHg 87%
    05:00 +10°C° 0 mm 1 m/S 677 mmHg 86%
    06:00 +11°C° 0 mm 1 m/S 678 mmHg 80%
    07:00 +13°C° 0 mm 1 m/S 679 mmHg 74%
    08:00 +15°C° 0 mm 1 m/S 680 mmHg 68%
    09:00 +16°C° 0 mm 1 m/S 680 mmHg 63%
    10:00 +19°C° 0 mm 1 m/S 681 mmHg 58%
    11:00 +19°C° 0 mm 2 m/S 681 mmHg 54%
    12:00 +20°C° 0 mm 1 m/S 681 mmHg 56%
    13:00 +20°C° 0 mm 1 m/S 680 mmHg 58%
    14:00 +20°C° 0 mm 1 m/S 680 mmHg 60%
    15:00 +18°C° 0 mm 1 m/S 680 mmHg 69%
    16:00 +15°C° 0 mm 1 m/S 680 mmHg 78%
    17:00 +13°C° 0 mm 0 m/S 680 mmHg 87%
    18:00 +12°C° 0 mm 0 m/S 681 mmHg 88%
    19:00 +12°C° 0 mm 0 m/S 681 mmHg 89%
    20:00 +11°C° 0 mm 0 m/S 681 mmHg 90%
    21:00 +12°C° 0 mm 1 m/S 681 mmHg 90%
    22:00 +11°C° 0 mm 1 m/S 682 mmHg 90%
    23:00 +11°C° 0 mm 1 m/S 682 mmHg 90%
    Mehr zeigen